Tracking 29892 objects as of 21-Nov-2024
HD Live streaming from Space Station
objects crossing your sky now

FENGYUN 1C DEB

Track FENGYUN 1C DEB now!
10-day predictions


NORAD ID: 30884
Int'l Code: 1999-025AXW
Perigee: 637.5 km
Apogee: 755.9 km
Inclination: 98.9 °
Period: 98.6 minutes
Semi major axis: 7067 km
RCS: 0.0113 m2 (small)
Launch date: May 10, 1999
Source: People's Republic of China (PRC)
Launch site: Taiyaun Space Center, China (TSC)

Note: This is SATELLITE DEBRIS
Your satellite tracking list
Your tracking list is empty




NASA's NSSDC Master Catalog

Two Line Element Set (TLE):
1 30884U 99025AXW 24323.61082979  .00010638  00000-0  20666-2 0  9994
2 30884  98.8647 278.6731 0083736  98.8353 262.2338 14.61117240929524
Source of the keplerian elements: AFSPC